FENGYUN 1C DEB, 31329

Orbit data source: Space-Track

FENGYUN 1C DEB, 31329 is space debris in SSO originally from a launch on Mon, 10 May 1999 UTC launched from the Taiyaun Space Center, China (TSC). Fengyun 1C debris stems from the Chinese weather satellite Fengyun-1C, which was intentionally destroyed by a Chinese anti-satellite missile in 2007. This event dramatically increased the amount of space debris, with thousands of trackable fragments posing hazards to satellites and human spaceflight. The Fengyun 1C debris cloud has become a focal point in discussions about space sustainability and the need for international regulations to prevent the creation of new debris.

Loading next visibility...
Identifier
31329, 1999-025BQH
Orbit
SSO
Country
Flag of CNCN / PRC
Related business
Manufacturer
Unknown
Mission
Spacecraft
Bus & Motor
Unknown
Mass
Unknown
Launch date (UTC)
1999-05-10 (27 years ago)
Launch vehicle
Unknown
Launch site
Taiyaun Space Center, China (TSC)
Object type
Payload
Rocket body
Debris
Shape & HBR
Unknown shape, 0.1 m
Radar Cross Section
Small (<0.1 m²)

Expand to show TLE details & history
Last TLE update: 1 day ago

TLE from 1 day ago
0 FENGYUN 1C DEB
1 31329U 99025BQH 26171.26395306  .00004238  00000-0  69336-3 0  9991
2 31329  98.9046 179.2639 0050820 217.1689 142.5992 14.70573623 53987
Epoch: 2026-06-20T06:20Z
TLE epoch observation values (Epoch: 2026-06-20T06:20:05.544Z)
Latitude
-0.00006°
Longitude
175.75973°
Altitude
690.698 km
Speed
7.496 km/s
True Right ascension
11h 57m 03s
True Declination
0° 00' 00"
Sunlit
Object was in daylight at epoch
Visualization orbit readout
Latitude
Unknown
Longitude
Unknown
Altitude
Unknown
Speed
Unknown
Apparent Right ascension
Unknown
Apparent Declination
Unknown
Sunlit
N/A
Visualization observer readout
Local Sidereal Time
23:43:16
Azimuth
Unknown
Elevation
Unknown
Doppler factor
Unknown
Orbital elements
Apogee altitude
692.088 km
Perigee altitude
620.589 km
Semi-major axis
7,034.475 km
Eccentricity
0.00508
Inclination
98.9046°
RAAN
179.2639°
Arg. of periapsis
217.1689°
True anomaly
142.95114°
Mean anomaly
142.5992°
Eccentric anomaly
142.77535°
Mean motion
3.67871 °/min
Orbital period
97.86 mins
BSTAR
0.00069336
Loading maneuver chart data...
Computing Atmospheric mass density...

Documentation

Showing up to 5 results
|